Terug naar catalogus

FENGYUN 2E AKM

ActiefGEO
NORAD 33465·ROCKET BODY·🇨🇳 China

Gelanceerd Dec 23, 2008 vanaf Xichang Satellite Launch Center

Loading…

TLE

VersSource: Space-Track

Epoch: Sep 14, 2026, 19:22 UTC

1 33465U 08066C   26257.80763545 -.00000149  00000-0  00000-0 0  9996
2 33465  10.0158  43.3688 0032618 325.7445  34.1063  1.02096194 48450

Volg FENGYUN 2E AKM in realtime met AllMySat

Download on the App Store